21:46
Airports
History
Links
Donate
Help keep this website running!
PayPal
Bitcoin
This page is community maintained. The information is intended for PC simulator navigation or reference.
Always use approved charts for navigation.
CYTF
ALMA
ALMA (CYTF)
Alma, Québec, Canada
(U)
Lat/Lng:48° 30' 31.5" N / 71° 38' 31.01" W
48.50875 / -71.641946
Elevation:445'ft / 136mMSL
ID / ICAO:CYTF
Runways:1
Longest:13-31
Asphalt 1,304m / 4,277ft
Nearby Weather21:00 GMT 2017-12-12
Nearby weather at CYRJ, ROBERVAL located 28.6 nautical miles from CYTF
Altimeter: 29.72
Visibility: 1.0 statute miles
Wind: 10 knots (from 070°)
Temp: -12°c / 10°f
Humidity: 85.0%

METAR: CYRJ 122100Z 07010G15KT 040V100 1SM -SN VV010 M12/M14 A2972 RMK SN8 SLP083

(Powered by phpweather)
Airport Radio Frequencies
CTAF/UNICOM: 123
Approach: 127.2
Nearby VORs <50NM
Nearby NDBs
Runway 13 / 31
Dimensions:1303.6 x 30.5m 4277' x 100'ft
Surface:Asphalt
Edge Lights:Medium intensity
Runway 13 [A]Runway 31 [B]
Heading:113°TH 293°TH
Lat:
Lng:
48° 30' 40"N
71° 39' 0.01"W
48° 30' 23"N
71° 38' 2"W
ALS:MALSMALS
User Notes and Comments
48° 30' 31.5" N / 71° 38' 31.01" W
Distance To
Airport ID:
Nearby Airports
(C) ST HONORE 27.1 NM
CYRC E 88°
(U) ROBERVAL 28.6 NM
CYRJ ( WX ) W 271°
(C) BAGOTVILLE 32.1 NM
CYBG ( WX ) ESE 112°
(U) DOLBEAU ST FELICIEN 38.3 NM
CYDO WNW 299°
(U) CHARLEVOIX 90.8 NM
CYML SE 133°
(U) LA TUQUE 92.6 NM
CYLQ SW 214°
(U) Riviere-du-loup 107.9 NM
CYRI ESE 118°
VFR Chart
Flight Planning at SkyVector.com